Year,Month,Day,Hour,Minute,Value (Times are PST for temperature in C)
2016,04,18,00,00,14.70
2016,04,18,00,01,14.70
2016,04,18,00,02,14.70
2016,04,18,00,03,14.70
2016,04,18,00,04,14.70
2016,04,18,00,05,14.70
2016,04,18,00,06,14.70
2016,04,18,00,07,14.70
2016,04,18,00,08,14.70
2016,04,18,00,09,14.70
2016,04,18,00,10,14.70
2016,04,18,00,11,14.70
2016,04,18,00,12,14.70
2016,04,18,00,13,14.70
2016,04,18,00,14,14.70
2016,04,18,00,15,14.60
2016,04,18,00,16,14.60
2016,04,18,00,17,14.60
2016,04,18,00,18,14.60
2016,04,18,00,19,14.60
2016,04,18,00,20,14.70
2016,04,18,00,21,14.70
2016,04,18,00,22,14.70
2016,04,18,00,23,14.70
2016,04,18,00,24,14.80
2016,04,18,00,25,14.80
2016,04,18,00,26,14.80
2016,04,18,00,27,14.90
2016,04,18,00,28,14.90
2016,04,18,00,29,14.90
2016,04,18,00,30,14.90
2016,04,18,00,31,14.90
2016,04,18,00,32,14.90
2016,04,18,00,33,14.90
2016,04,18,00,34,14.90
2016,04,18,00,35,14.90
2016,04,18,00,36,14.90
2016,04,18,00,37,14.90
2016,04,18,00,38,14.90
2016,04,18,00,39,14.90
2016,04,18,00,40,14.80
2016,04,18,00,41,14.80
2016,04,18,00,42,14.70
2016,04,18,00,43,14.60
2016,04,18,00,44,14.50
2016,04,18,00,45,14.40
2016,04,18,00,46,14.30
2016,04,18,00,47,14.20
2016,04,18,00,48,14.10
2016,04,18,00,49,14.00
2016,04,18,00,50,13.90
2016,04,18,00,51,13.90
2016,04,18,00,52,13.80
2016,04,18,00,53,13.80
2016,04,18,00,54,13.70
2016,04,18,00,55,13.70
2016,04,18,00,56,13.60
2016,04,18,00,57,13.60
2016,04,18,00,58,13.50
2016,04,18,00,59,13.50
2016,04,18,01,00,13.40
2016,04,18,01,01,13.40
2016,04,18,01,02,13.40
2016,04,18,01,03,13.30
2016,04,18,01,04,13.30
2016,04,18,01,05,13.30
2016,04,18,01,06,13.30
2016,04,18,01,07,13.30
2016,04,18,01,08,13.30
2016,04,18,01,09,13.30
2016,04,18,01,10,13.30
2016,04,18,01,11,13.30
2016,04,18,01,12,13.30
2016,04,18,01,13,13.30
2016,04,18,01,14,13.30
2016,04,18,01,15,13.30
2016,04,18,01,16,13.30
2016,04,18,01,17,13.40
2016,04,18,01,18,13.40
2016,04,18,01,19,13.40
2016,04,18,01,20,13.50
2016,04,18,01,21,13.50
2016,04,18,01,22,13.50
2016,04,18,01,23,13.50
2016,04,18,01,24,13.50
2016,04,18,01,25,13.50
2016,04,18,01,26,13.50
2016,04,18,01,27,13.50
2016,04,18,01,28,13.50
2016,04,18,01,29,13.50
2016,04,18,01,30,13.50
2016,04,18,01,31,13.50
2016,04,18,01,32,13.40
2016,04,18,01,33,13.40
2016,04,18,01,34,13.40
2016,04,18,01,35,13.40
2016,04,18,01,36,13.40
2016,04,18,01,37,13.40
2016,04,18,01,38,13.30
2016,04,18,01,39,13.30
2016,04,18,01,40,13.30
2016,04,18,01,41,13.20
2016,04,18,01,42,13.20
2016,04,18,01,43,13.20
2016,04,18,01,44,13.20
2016,04,18,01,45,13.20
2016,04,18,01,46,13.20
2016,04,18,01,47,13.20
2016,04,18,01,48,13.20
2016,04,18,01,49,13.20
2016,04,18,01,50,13.20
2016,04,18,01,51,13.10
2016,04,18,01,52,13.10
2016,04,18,01,53,13.00
2016,04,18,01,54,13.00
2016,04,18,01,55,12.90
2016,04,18,01,56,12.90
2016,04,18,01,57,12.90
2016,04,18,01,58,12.80
2016,04,18,01,59,12.80
2016,04,18,02,00,12.70
2016,04,18,02,01,12.60
2016,04,18,02,02,12.60
2016,04,18,02,03,12.50
2016,04,18,02,04,12.40
2016,04,18,02,05,12.40
2016,04,18,02,06,12.40
2016,04,18,02,07,12.40
2016,04,18,02,08,12.40
2016,04,18,02,09,12.40
2016,04,18,02,10,12.50
2016,04,18,02,11,12.50
2016,04,18,02,12,12.60
2016,04,18,02,13,12.60
2016,04,18,02,14,12.50
2016,04,18,02,15,12.50
2016,04,18,02,16,12.40
2016,04,18,02,17,12.40
2016,04,18,02,18,12.40
2016,04,18,02,19,12.40
2016,04,18,02,20,12.30
2016,04,18,02,21,12.30
2016,04,18,02,22,12.30
2016,04,18,02,23,12.30
2016,04,18,02,24,12.30
2016,04,18,02,25,12.30
2016,04,18,02,26,12.30
2016,04,18,02,27,12.30
2016,04,18,02,28,12.30
2016,04,18,02,29,12.40
2016,04,18,02,30,12.40
2016,04,18,02,31,12.40
2016,04,18,02,32,12.40
2016,04,18,02,33,12.40
2016,04,18,02,34,12.40
2016,04,18,02,35,12.50
2016,04,18,02,36,12.50
2016,04,18,02,37,12.50
2016,04,18,02,38,12.50
2016,04,18,02,39,12.50
2016,04,18,02,40,12.50
2016,04,18,02,41,12.50
2016,04,18,02,42,12.40
2016,04,18,02,43,12.40
2016,04,18,02,44,12.40
2016,04,18,02,45,12.40
2016,04,18,02,46,12.40
2016,04,18,02,47,12.30
2016,04,18,02,48,12.30
2016,04,18,02,49,12.30
2016,04,18,02,50,12.30
2016,04,18,02,51,12.30
2016,04,18,02,52,12.40
2016,04,18,02,53,12.40
2016,04,18,02,54,12.50
2016,04,18,02,55,12.50
2016,04,18,02,56,12.60
2016,04,18,02,57,12.60
2016,04,18,02,58,12.70
2016,04,18,02,59,12.70
2016,04,18,03,00,12.70
2016,04,18,03,01,12.80
2016,04,18,03,02,12.80
2016,04,18,03,03,12.80
2016,04,18,03,04,12.90
2016,04,18,03,05,12.90
2016,04,18,03,06,12.90
2016,04,18,03,07,12.90
2016,04,18,03,08,12.90
2016,04,18,03,09,12.90
2016,04,18,03,10,12.90
2016,04,18,03,11,12.90
2016,04,18,03,12,12.90
2016,04,18,03,13,12.90
2016,04,18,03,14,12.90
2016,04,18,03,15,12.90
2016,04,18,03,16,12.90
2016,04,18,03,17,13.00
2016,04,18,03,18,13.00
2016,04,18,03,19,13.10
2016,04,18,03,20,13.10
2016,04,18,03,21,13.10
2016,04,18,03,22,13.20
2016,04,18,03,23,13.20
2016,04,18,03,24,13.20
2016,04,18,03,25,13.30
2016,04,18,03,26,13.30
2016,04,18,03,27,13.40
2016,04,18,03,28,13.40
2016,04,18,03,29,13.50
2016,04,18,03,30,13.50
2016,04,18,03,31,13.50
2016,04,18,03,32,13.60
2016,04,18,03,33,13.60
2016,04,18,03,34,13.60
2016,04,18,03,35,13.70
2016,04,18,03,36,13.70
2016,04,18,03,37,13.70
2016,04,18,03,38,13.70
2016,04,18,03,39,13.70
2016,04,18,03,40,13.70
2016,04,18,03,41,13.70
2016,04,18,03,42,13.70
2016,04,18,03,43,13.70
2016,04,18,03,44,13.70
2016,04,18,03,45,13.70
2016,04,18,03,46,13.70
2016,04,18,03,47,13.70
2016,04,18,03,48,13.70
2016,04,18,03,49,13.70
2016,04,18,03,50,13.70
2016,04,18,03,51,13.70
2016,04,18,03,52,13.70
2016,04,18,03,53,13.70
2016,04,18,03,54,13.60
2016,04,18,03,55,13.50
2016,04,18,03,56,13.50
2016,04,18,03,57,13.50
2016,04,18,03,58,13.40
2016,04,18,03,59,13.40
2016,04,18,04,00,13.40
2016,04,18,04,01,13.30
2016,04,18,04,02,13.30
2016,04,18,04,03,13.30
2016,04,18,04,04,13.20
2016,04,18,04,05,13.20
2016,04,18,04,06,13.20
2016,04,18,04,07,13.20
2016,04,18,04,08,13.20
2016,04,18,04,09,13.20
2016,04,18,04,10,13.20
2016,04,18,04,11,13.20
2016,04,18,04,12,13.20
2016,04,18,04,13,13.20
2016,04,18,04,14,13.20
2016,04,18,04,15,13.20
2016,04,18,04,16,13.20
2016,04,18,04,17,13.20
2016,04,18,04,18,13.30
2016,04,18,04,19,13.30
2016,04,18,04,20,13.30
2016,04,18,04,21,13.30
2016,04,18,04,22,13.30
2016,04,18,04,23,13.30
2016,04,18,04,24,13.30
2016,04,18,04,25,13.20
2016,04,18,04,26,13.20
2016,04,18,04,27,13.20
2016,04,18,04,28,13.20
2016,04,18,04,29,13.20
2016,04,18,04,30,13.20
2016,04,18,04,31,13.20
2016,04,18,04,32,13.20
2016,04,18,04,33,13.20
2016,04,18,04,34,13.20
2016,04,18,04,35,13.20
2016,04,18,04,36,13.20
2016,04,18,04,37,13.20
2016,04,18,04,38,13.20
2016,04,18,04,39,13.20
2016,04,18,04,40,13.20
2016,04,18,04,41,13.10
2016,04,18,04,42,13.10
2016,04,18,04,43,13.00
2016,04,18,04,44,12.90
2016,04,18,04,45,12.90
2016,04,18,04,46,12.90
2016,04,18,04,47,12.90
2016,04,18,04,48,12.80
2016,04,18,04,49,12.80
2016,04,18,04,50,12.80
2016,04,18,04,51,12.80
2016,04,18,04,52,12.90
2016,04,18,04,53,12.90
2016,04,18,04,54,12.90
2016,04,18,04,55,12.90
2016,04,18,04,56,12.80
2016,04,18,04,57,12.70
2016,04,18,04,58,12.70
2016,04,18,04,59,12.70
2016,04,18,05,00,12.70
2016,04,18,05,01,12.70
2016,04,18,05,02,12.70
2016,04,18,05,03,12.80
2016,04,18,05,04,12.80
2016,04,18,05,05,12.80
2016,04,18,05,06,12.80
2016,04,18,05,07,12.80
2016,04,18,05,08,12.80
2016,04,18,05,09,12.90
2016,04,18,05,10,12.90
2016,04,18,05,11,12.90
2016,04,18,05,12,13.00
2016,04,18,05,13,13.00
2016,04,18,05,14,13.10
2016,04,18,05,15,13.10
2016,04,18,05,16,13.10
2016,04,18,05,17,13.10
2016,04,18,05,18,13.10
2016,04,18,05,19,13.10
2016,04,18,05,20,13.00
2016,04,18,05,21,13.00
2016,04,18,05,22,12.90
2016,04,18,05,23,12.90
2016,04,18,05,24,12.90
2016,04,18,05,25,12.90
2016,04,18,05,26,12.80
2016,04,18,05,27,12.80
2016,04,18,05,28,12.80
2016,04,18,05,29,12.80
2016,04,18,05,30,12.70
2016,04,18,05,31,12.70
2016,04,18,05,32,12.70
2016,04,18,05,33,12.70
2016,04,18,05,34,12.60
2016,04,18,05,35,12.60
2016,04,18,05,36,12.60
2016,04,18,05,37,12.60
2016,04,18,05,38,12.60
2016,04,18,05,39,12.60
2016,04,18,05,40,12.70
2016,04,18,05,41,12.70
2016,04,18,05,42,12.80
2016,04,18,05,43,12.80
2016,04,18,05,44,12.80
2016,04,18,05,45,12.70
2016,04,18,05,46,12.70
2016,04,18,05,47,12.70
2016,04,18,05,48,12.60
2016,04,18,05,49,12.60
2016,04,18,05,50,12.50
2016,04,18,05,51,12.50
2016,04,18,05,52,12.40
2016,04,18,05,53,12.40
2016,04,18,05,54,12.40
2016,04,18,05,55,12.30
2016,04,18,05,56,12.30
2016,04,18,05,57,12.20
2016,04,18,05,58,12.20
2016,04,18,05,59,12.10
2016,04,18,06,00,12.00
2016,04,18,06,01,12.00
2016,04,18,06,02,11.90
2016,04,18,06,03,11.90
2016,04,18,06,04,11.90
2016,04,18,06,05,11.90
2016,04,18,06,06,11.90
2016,04,18,06,07,11.90
2016,04,18,06,08,11.90
2016,04,18,06,09,11.90
2016,04,18,06,10,12.00
2016,04,18,06,11,12.00
2016,04,18,06,12,12.00
2016,04,18,06,13,11.90
2016,04,18,06,14,11.90
2016,04,18,06,15,11.90
2016,04,18,06,16,11.90
2016,04,18,06,17,11.90
2016,04,18,06,18,11.90
2016,04,18,06,19,11.90
2016,04,18,06,20,11.90
2016,04,18,06,21,11.90
2016,04,18,06,22,11.90
2016,04,18,06,23,11.80
2016,04,18,06,24,11.80
2016,04,18,06,25,11.80
2016,04,18,06,26,11.80
2016,04,18,06,27,11.70
2016,04,18,06,28,11.70
2016,04,18,06,29,11.70
2016,04,18,06,30,11.70
2016,04,18,06,31,11.70
2016,04,18,06,32,11.60
2016,04,18,06,33,11.60
2016,04,18,06,34,11.60
2016,04,18,06,35,11.60
2016,04,18,06,36,11.60
2016,04,18,06,37,11.60
2016,04,18,06,38,11.60
2016,04,18,06,39,11.60
2016,04,18,06,40,11.60
2016,04,18,06,41,11.60
2016,04,18,06,42,11.60
2016,04,18,06,43,11.60
2016,04,18,06,44,11.60
2016,04,18,06,45,11.60
2016,04,18,06,46,11.60
2016,04,18,06,47,11.60
2016,04,18,06,48,11.70
2016,04,18,06,49,11.70
2016,04,18,06,50,11.70
2016,04,18,06,51,11.70
2016,04,18,06,52,11.70
2016,04,18,06,53,11.70
2016,04,18,06,54,11.60
2016,04,18,06,55,11.60
2016,04,18,06,56,11.60
2016,04,18,06,57,11.60
2016,04,18,06,58,11.60
2016,04,18,06,59,11.70
2016,04,18,07,00,11.70
2016,04,18,07,01,11.70
2016,04,18,07,02,11.80
2016,04,18,07,03,11.80
2016,04,18,07,04,11.80
2016,04,18,07,05,11.70
2016,04,18,07,06,11.70
2016,04,18,07,07,11.70
2016,04,18,07,08,11.70
2016,04,18,07,09,11.60
2016,04,18,07,10,11.60
2016,04,18,07,11,11.60
2016,04,18,07,12,11.60
2016,04,18,07,13,11.60
2016,04,18,07,14,11.70
2016,04,18,07,15,11.70
2016,04,18,07,16,11.70
2016,04,18,07,17,11.80
2016,04,18,07,18,11.90
2016,04,18,07,19,11.90
2016,04,18,07,20,12.00
2016,04,18,07,21,12.00
2016,04,18,07,22,12.00
2016,04,18,07,23,12.00
2016,04,18,07,24,12.00
2016,04,18,07,25,12.00
2016,04,18,07,26,12.00
2016,04,18,07,27,12.00
2016,04,18,07,28,12.00
2016,04,18,07,29,12.00
2016,04,18,07,30,11.90
2016,04,18,07,31,12.00
2016,04,18,07,32,12.00
2016,04,18,07,33,12.00
2016,04,18,07,34,12.10
2016,04,18,07,35,12.10
2016,04,18,07,36,12.10
2016,04,18,07,37,12.10
2016,04,18,07,38,12.10
2016,04,18,07,39,12.10
2016,04,18,07,40,12.10
2016,04,18,07,41,12.10
2016,04,18,07,42,12.10
2016,04,18,07,43,12.10
2016,04,18,07,44,12.10
2016,04,18,07,45,12.20
2016,04,18,07,46,12.20
2016,04,18,07,47,12.20
2016,04,18,07,48,12.20
2016,04,18,07,49,12.30
2016,04,18,07,50,12.30
2016,04,18,07,51,12.30
2016,04,18,07,52,12.30
2016,04,18,07,53,12.30
2016,04,18,07,54,12.30
2016,04,18,07,55,12.30
2016,04,18,07,56,12.40
2016,04,18,07,57,12.40
2016,04,18,07,58,12.40
2016,04,18,07,59,12.40
2016,04,18,08,00,12.40
2016,04,18,08,01,12.50
2016,04,18,08,02,12.50
2016,04,18,08,03,12.50
2016,04,18,08,04,12.60
2016,04,18,08,05,12.60
2016,04,18,08,06,12.60
2016,04,18,08,07,12.70
2016,04,18,08,08,12.70
2016,04,18,08,09,12.80
2016,04,18,08,10,12.80
2016,04,18,08,11,12.80
2016,04,18,08,12,12.80
2016,04,18,08,13,12.90
2016,04,18,08,14,12.90
2016,04,18,08,15,12.90
2016,04,18,08,16,13.00
2016,04,18,08,17,13.00
2016,04,18,08,18,13.10
2016,04,18,08,19,13.20
2016,04,18,08,20,13.20
2016,04,18,08,21,13.30
2016,04,18,08,22,13.30
2016,04,18,08,23,13.40
2016,04,18,08,24,13.40
2016,04,18,08,25,13.50
2016,04,18,08,26,13.60
2016,04,18,08,27,13.60
2016,04,18,08,28,13.70
2016,04,18,08,29,13.70
2016,04,18,08,30,13.70
2016,04,18,08,31,13.70
2016,04,18,08,32,13.70
2016,04,18,08,33,13.80
2016,04,18,08,34,13.80
2016,04,18,08,35,13.80
2016,04,18,08,36,13.90
2016,04,18,08,37,13.90
2016,04,18,08,38,13.90
2016,04,18,08,39,13.90
2016,04,18,08,40,13.90
2016,04,18,08,41,14.00
2016,04,18,08,42,14.00
2016,04,18,08,43,14.10
2016,04,18,08,44,14.10
2016,04,18,08,45,14.10
2016,04,18,08,46,14.20
2016,04,18,08,47,14.20
2016,04,18,08,48,14.30
2016,04,18,08,49,14.30
2016,04,18,08,50,14.40
2016,04,18,08,51,14.50
2016,04,18,08,52,14.50
2016,04,18,08,53,14.60
2016,04,18,08,54,14.60
2016,04,18,08,55,14.70
2016,04,18,08,56,14.70
2016,04,18,08,57,14.80
2016,04,18,08,58,14.80
2016,04,18,08,59,14.90
2016,04,18,09,00,14.90
2016,04,18,09,01,15.00
2016,04,18,09,02,15.00
2016,04,18,09,03,15.10
2016,04,18,09,04,15.20
2016,04,18,09,05,15.20
2016,04,18,09,06,15.30
2016,04,18,09,07,15.30
2016,04,18,09,08,15.40
2016,04,18,09,09,15.50
2016,04,18,09,10,15.60
2016,04,18,09,11,15.60
2016,04,18,09,12,15.70
2016,04,18,09,13,15.70
2016,04,18,09,14,15.80
2016,04,18,09,15,15.80
2016,04,18,09,16,15.80
2016,04,18,09,17,15.80
2016,04,18,09,18,15.80
2016,04,18,09,19,15.80
2016,04,18,09,20,15.90
2016,04,18,09,21,15.90
2016,04,18,09,22,15.90
2016,04,18,09,23,15.90
2016,04,18,09,24,15.90
2016,04,18,09,25,16.00
2016,04,18,09,26,16.00
2016,04,18,09,27,16.00
2016,04,18,09,28,16.10
2016,04,18,09,29,16.10
2016,04,18,09,30,16.20
2016,04,18,09,31,16.20
2016,04,18,09,32,16.30
2016,04,18,09,33,16.30
2016,04,18,09,34,16.40
2016,04,18,09,35,16.40
2016,04,18,09,36,16.50
2016,04,18,09,37,16.50
2016,04,18,09,38,16.60
2016,04,18,09,39,16.60
2016,04,18,09,40,16.60
2016,04,18,09,41,16.60
2016,04,18,09,42,16.60
2016,04,18,09,43,16.60
2016,04,18,09,44,16.60
2016,04,18,09,45,16.60
2016,04,18,09,46,16.70
2016,04,18,09,47,16.70
2016,04,18,09,48,16.70
2016,04,18,09,49,16.70
2016,04,18,09,50,16.70
2016,04,18,09,51,16.80
2016,04,18,09,52,16.80
2016,04,18,09,53,16.80
2016,04,18,09,54,16.80
2016,04,18,09,55,16.90
2016,04,18,09,56,16.90
2016,04,18,09,57,16.90
2016,04,18,09,58,16.90
2016,04,18,09,59,16.90
2016,04,18,10,00,16.90
2016,04,18,10,01,16.90
2016,04,18,10,02,17.00
2016,04,18,10,03,17.10
2016,04,18,10,04,17.10
2016,04,18,10,05,17.20
2016,04,18,10,06,17.30
2016,04,18,10,07,17.40
2016,04,18,10,08,17.40
2016,04,18,10,09,17.50
2016,04,18,10,10,17.60
2016,04,18,10,11,17.60
2016,04,18,10,12,17.70
2016,04,18,10,13,17.80
2016,04,18,10,14,17.80
2016,04,18,10,15,17.80
2016,04,18,10,16,17.80
2016,04,18,10,17,17.70
2016,04,18,10,18,17.70
2016,04,18,10,19,17.70
2016,04,18,10,20,17.70
2016,04,18,10,21,17.60
2016,04,18,10,22,17.60
2016,04,18,10,23,17.60
2016,04,18,10,24,17.50
2016,04,18,10,25,17.40
2016,04,18,10,26,17.30
2016,04,18,10,27,17.20
2016,04,18,10,28,17.10
2016,04,18,10,29,17.10
2016,04,18,10,30,17.10
2016,04,18,10,31,17.10
2016,04,18,10,32,17.10
2016,04,18,10,33,17.20
2016,04,18,10,34,17.20
2016,04,18,10,35,17.20
2016,04,18,10,36,17.20
2016,04,18,10,37,17.20
2016,04,18,10,38,17.30
2016,04,18,10,39,17.40
2016,04,18,10,40,17.50
2016,04,18,10,41,17.50
2016,04,18,10,42,17.60
2016,04,18,10,43,17.60
2016,04,18,10,44,17.70
2016,04,18,10,45,17.80
2016,04,18,10,46,17.80
2016,04,18,10,47,17.90
2016,04,18,10,48,17.90
2016,04,18,10,49,18.00
2016,04,18,10,50,18.00
2016,04,18,10,51,18.00
2016,04,18,10,52,18.00
2016,04,18,10,53,18.00
2016,04,18,10,54,18.00
2016,04,18,10,55,18.00
2016,04,18,10,56,17.90
2016,04,18,10,57,17.90
2016,04,18,10,58,17.80
2016,04,18,10,59,17.80
2016,04,18,11,00,17.90
2016,04,18,11,01,17.90
2016,04,18,11,02,17.90
2016,04,18,11,03,18.00
2016,04,18,11,04,18.10
2016,04,18,11,05,18.10
2016,04,18,11,06,18.20
2016,04,18,11,07,18.30
2016,04,18,11,08,18.30
2016,04,18,11,09,18.30
2016,04,18,11,10,18.40
2016,04,18,11,11,18.30
2016,04,18,11,12,18.30
2016,04,18,11,13,18.30
2016,04,18,11,14,18.20
2016,04,18,11,15,18.10
2016,04,18,11,16,17.80
2016,04,18,11,17,17.70
2016,04,18,11,18,17.50
2016,04,18,11,19,17.40
2016,04,18,11,20,17.40
2016,04,18,11,21,17.30
2016,04,18,11,22,17.30
2016,04,18,11,23,17.30
2016,04,18,11,24,17.30
2016,04,18,11,25,17.30
2016,04,18,11,26,17.30
2016,04,18,11,27,17.30
2016,04,18,11,28,17.30
2016,04,18,11,29,17.20
2016,04,18,11,30,17.10
2016,04,18,11,31,17.10
2016,04,18,11,32,17.00
2016,04,18,11,33,17.00
2016,04,18,11,34,17.00
2016,04,18,11,35,17.00
2016,04,18,11,36,17.00
2016,04,18,11,37,17.20
2016,04,18,11,38,17.30
2016,04,18,11,39,17.40
2016,04,18,11,40,17.50
2016,04,18,11,41,17.60
2016,04,18,11,42,17.70
2016,04,18,11,43,17.80
2016,04,18,11,44,17.80
2016,04,18,11,45,17.90
2016,04,18,11,46,18.00
2016,04,18,11,47,18.00
2016,04,18,11,48,18.10
2016,04,18,11,49,18.10
2016,04,18,11,50,18.20
2016,04,18,11,51,18.20
2016,04,18,11,52,18.20
2016,04,18,11,53,18.30
2016,04,18,11,54,18.30
2016,04,18,11,55,18.30
2016,04,18,11,56,18.30
2016,04,18,11,57,18.30
2016,04,18,11,58,18.20
2016,04,18,11,59,18.20
2016,04,18,12,00,18.20
2016,04,18,12,01,18.30
2016,04,18,12,02,18.30
2016,04,18,12,03,18.40
2016,04,18,12,04,18.50
2016,04,18,12,05,18.50
2016,04,18,12,06,18.60
2016,04,18,12,07,18.60
2016,04,18,12,08,18.60
2016,04,18,12,09,18.70
2016,04,18,12,10,18.70
2016,04,18,12,11,18.80
2016,04,18,12,12,18.80
2016,04,18,12,13,18.80
2016,04,18,12,14,18.70
2016,04,18,12,15,18.70
2016,04,18,12,16,18.80
2016,04,18,12,17,19.10
2016,04,18,12,18,19.40
2016,04,18,12,19,19.80
2016,04,18,12,20,20.20
2016,04,18,12,21,20.40
2016,04,18,12,22,20.60
2016,04,18,12,23,20.80
2016,04,18,12,24,21.20
2016,04,18,12,25,21.60
2016,04,18,12,26,22.00
2016,04,18,12,27,22.30
2016,04,18,12,28,22.50
2016,04,18,12,29,22.80
2016,04,18,12,30,23.00
2016,04,18,12,31,23.20
2016,04,18,12,32,23.30
2016,04,18,12,33,23.50
2016,04,18,12,34,23.60
2016,04,18,12,35,23.60
2016,04,18,12,36,23.70
2016,04,18,12,37,23.80
2016,04,18,12,38,23.90
2016,04,18,12,39,23.90
2016,04,18,12,40,24.00
2016,04,18,12,41,24.10
2016,04,18,12,42,24.10
2016,04,18,12,43,24.20
2016,04,18,12,44,24.30
2016,04,18,12,45,24.40
2016,04,18,12,46,24.40
2016,04,18,12,47,24.40
2016,04,18,12,48,24.40
2016,04,18,12,49,24.40
2016,04,18,12,50,24.40
2016,04,18,12,51,24.40
2016,04,18,12,52,24.40
2016,04,18,12,53,24.30
2016,04,18,12,54,24.40
2016,04,18,12,55,24.40
2016,04,18,12,56,24.50
2016,04,18,12,57,24.50
2016,04,18,12,58,24.50
2016,04,18,12,59,24.60
2016,04,18,13,00,24.60
2016,04,18,13,01,24.70
2016,04,18,13,02,24.70
2016,04,18,13,03,24.80
2016,04,18,13,04,24.80
2016,04,18,13,05,24.80
2016,04,18,13,06,24.80
2016,04,18,13,07,24.80
2016,04,18,13,08,24.80
2016,04,18,13,09,24.80
2016,04,18,13,10,24.90
2016,04,18,13,11,24.90
2016,04,18,13,12,24.90
2016,04,18,13,13,25.00
2016,04,18,13,14,25.00
2016,04,18,13,15,25.00
2016,04,18,13,16,24.90
2016,04,18,13,17,24.90
2016,04,18,13,18,24.80
2016,04,18,13,19,24.80
2016,04,18,13,20,24.70
2016,04,18,13,21,24.80
2016,04,18,13,22,24.80
2016,04,18,13,23,24.80
2016,04,18,13,24,24.80
2016,04,18,13,25,24.80
2016,04,18,13,26,24.80
2016,04,18,13,27,24.80
2016,04,18,13,28,24.80
2016,04,18,13,29,24.90
2016,04,18,13,30,25.00
2016,04,18,13,31,25.10
2016,04,18,13,32,25.20
2016,04,18,13,33,25.30
2016,04,18,13,34,25.30
2016,04,18,13,35,25.40
2016,04,18,13,36,25.40
2016,04,18,13,37,25.40
2016,04,18,13,38,25.40
2016,04,18,13,39,25.40
2016,04,18,13,40,25.30
2016,04,18,13,41,25.30
2016,04,18,13,42,25.30
2016,04,18,13,43,25.20
2016,04,18,13,44,25.30
2016,04,18,13,45,25.30
2016,04,18,13,46,25.30
2016,04,18,13,47,25.20
2016,04,18,13,48,25.20
2016,04,18,13,49,25.10
2016,04,18,13,50,25.10
2016,04,18,13,51,25.10
2016,04,18,13,52,25.00
2016,04,18,13,53,25.00
2016,04,18,13,54,24.90
2016,04,18,13,55,24.90
2016,04,18,13,56,24.90
2016,04,18,13,57,24.90
2016,04,18,13,58,24.90
2016,04,18,13,59,25.00
2016,04,18,14,00,25.00
2016,04,18,14,01,25.00
2016,04,18,14,02,25.00
2016,04,18,14,03,25.00
2016,04,18,14,04,25.00
2016,04,18,14,05,25.00
2016,04,18,14,06,25.00
2016,04,18,14,07,25.00
2016,04,18,14,08,25.10
2016,04,18,14,09,25.10
2016,04,18,14,10,25.10
2016,04,18,14,11,25.20
2016,04,18,14,12,25.20
2016,04,18,14,13,25.10
2016,04,18,14,14,25.10
2016,04,18,14,15,25.20
2016,04,18,14,16,25.20
2016,04,18,14,17,25.20
2016,04,18,14,18,25.30
2016,04,18,14,19,25.40
2016,04,18,14,20,25.40
2016,04,18,14,21,25.50
2016,04,18,14,22,25.50
2016,04,18,14,23,25.60
2016,04,18,14,24,25.50
2016,04,18,14,25,25.50
2016,04,18,14,26,25.40
2016,04,18,14,27,25.30
2016,04,18,14,28,25.30
2016,04,18,14,29,25.20
2016,04,18,14,30,25.20
2016,04,18,14,31,25.20
2016,04,18,14,32,25.20
2016,04,18,14,33,25.20
2016,04,18,14,34,25.20
2016,04,18,14,35,25.20
2016,04,18,14,36,25.30
2016,04,18,14,37,25.40
2016,04,18,14,38,25.40
2016,04,18,14,39,25.40
2016,04,18,14,40,25.40
2016,04,18,14,41,25.40
2016,04,18,14,42,25.40
2016,04,18,14,43,25.40
2016,04,18,14,44,25.40
2016,04,18,14,45,25.40
2016,04,18,14,46,25.40
2016,04,18,14,47,25.40
2016,04,18,14,48,25.40
2016,04,18,14,49,25.30
2016,04,18,14,50,25.30
2016,04,18,14,51,25.30
2016,04,18,14,52,25.30
2016,04,18,14,53,25.30
2016,04,18,14,54,25.30
2016,04,18,14,55,25.30
2016,04,18,14,56,25.30
2016,04,18,14,57,25.30
2016,04,18,14,58,25.20
2016,04,18,14,59,25.10
2016,04,18,15,00,25.10
2016,04,18,15,01,25.10
2016,04,18,15,02,25.10
2016,04,18,15,03,25.10
2016,04,18,15,04,25.10
2016,04,18,15,05,25.10
2016,04,18,15,06,25.00
2016,04,18,15,07,25.00
2016,04,18,15,08,25.00
2016,04,18,15,09,25.00
2016,04,18,15,10,24.90
2016,04,18,15,11,24.90
2016,04,18,15,12,24.90
2016,04,18,15,13,24.90
2016,04,18,15,14,25.00
2016,04,18,15,15,25.10
2016,04,18,15,16,25.20
2016,04,18,15,17,25.10
2016,04,18,15,18,25.10
2016,04,18,15,19,25.00
2016,04,18,15,20,25.00
2016,04,18,15,21,24.90
2016,04,18,15,22,24.90
2016,04,18,15,23,24.90
2016,04,18,15,24,24.80
2016,04,18,15,25,24.70
2016,04,18,15,26,24.60
2016,04,18,15,27,24.60
2016,04,18,15,28,24.50
2016,04,18,15,29,24.40
2016,04,18,15,30,24.40
2016,04,18,15,31,24.30
2016,04,18,15,32,24.30
2016,04,18,15,33,24.30
2016,04,18,15,34,24.30
2016,04,18,15,35,24.30
2016,04,18,15,36,24.30
2016,04,18,15,37,24.30
2016,04,18,15,38,24.30
2016,04,18,15,39,24.20
2016,04,18,15,40,24.20
2016,04,18,15,41,24.10
2016,04,18,15,42,24.00
2016,04,18,15,43,23.90
2016,04,18,15,44,23.90
2016,04,18,15,45,23.90
2016,04,18,15,46,23.90
2016,04,18,15,47,23.90
2016,04,18,15,48,23.90
2016,04,18,15,49,23.80
2016,04,18,15,50,23.80
2016,04,18,15,51,23.70
2016,04,18,15,52,23.70
2016,04,18,15,53,23.70
2016,04,18,15,54,23.70
2016,04,18,15,55,23.70
2016,04,18,15,56,23.70
2016,04,18,15,57,23.60
2016,04,18,15,58,23.60
2016,04,18,15,59,23.50
2016,04,18,16,00,23.40
2016,04,18,16,01,23.30
2016,04,18,16,02,23.00
2016,04,18,16,03,22.90
2016,04,18,16,04,22.80
2016,04,18,16,05,22.70
2016,04,18,16,06,22.60
2016,04,18,16,07,22.30
2016,04,18,16,08,22.00
2016,04,18,16,09,21.90
2016,04,18,16,10,21.80
2016,04,18,16,11,21.60
2016,04,18,16,12,21.50
2016,04,18,16,13,21.50
2016,04,18,16,14,21.40
2016,04,18,16,15,21.40
2016,04,18,16,16,21.50
2016,04,18,16,17,21.50
2016,04,18,16,18,21.50
2016,04,18,16,19,21.40
2016,04,18,16,20,21.30
2016,04,18,16,21,21.20
2016,04,18,16,22,21.10
2016,04,18,16,23,20.90
2016,04,18,16,24,20.60
2016,04,18,16,25,20.20
2016,04,18,16,26,20.00
2016,04,18,16,27,19.90
2016,04,18,16,28,19.70
2016,04,18,16,29,19.60
2016,04,18,16,30,19.60
2016,04,18,16,31,19.60
2016,04,18,16,32,19.50
2016,04,18,16,33,19.50
2016,04,18,16,34,19.50
2016,04,18,16,35,19.50
2016,04,18,16,36,19.40
2016,04,18,16,37,19.30
2016,04,18,16,38,19.20
2016,04,18,16,39,19.10
2016,04,18,16,40,19.10
2016,04,18,16,41,19.00
2016,04,18,16,42,18.90
2016,04,18,16,43,18.80
2016,04,18,16,44,18.80
2016,04,18,16,45,18.70
2016,04,18,16,46,18.50
2016,04,18,16,47,18.40
2016,04,18,16,48,18.30
2016,04,18,16,49,18.30
2016,04,18,16,50,18.30
2016,04,18,16,51,18.30
2016,04,18,16,52,18.40
2016,04,18,16,53,18.50
2016,04,18,16,54,18.50
2016,04,18,16,55,18.50
2016,04,18,16,56,18.60
2016,04,18,16,57,18.60
2016,04,18,16,58,18.60
2016,04,18,16,59,18.60
2016,04,18,17,00,18.50
2016,04,18,17,01,18.40
2016,04,18,17,02,18.30
2016,04,18,17,03,18.30
2016,04,18,17,04,18.20
2016,04,18,17,05,18.20
2016,04,18,17,06,18.20
2016,04,18,17,07,18.20
2016,04,18,17,08,18.30
2016,04,18,17,09,18.40
2016,04,18,17,10,18.40
2016,04,18,17,11,18.40
2016,04,18,17,12,18.40
2016,04,18,17,13,18.40
2016,04,18,17,14,18.40
2016,04,18,17,15,18.40
2016,04,18,17,16,18.40
2016,04,18,17,17,18.50
2016,04,18,17,18,18.50
2016,04,18,17,19,18.60